User: anonymous   Login
Location: Stoke Bliss
(52.2667°N, 2.5167°W)
Time: 23:56:53
(UTC+00:00)
Language:

Resurs 01 Rocket - Orbit

View from above orbital plane
View from above orbital plane
View from above satellite
View from above satellite

Ground track
Ground track

The orbit data is extracted from the following two-line orbital elements,

1 23343U 94074B   21129.39223358  .00000013  00000-0  90398-5 0  9997
2 23343  97.9496 184.6150 0007058 169.1277 201.6261 14.76877891426524
Epoch (UTC): 09 May 2021 09:24:48
Eccentricity: 0.0007058
inclination: 97.9496°
perigee height: 634 km
apogee height: 644 km
right ascension of ascending node: 184.6150°
argument of perigee: 169.1277°
revolutions per day: 14.76877891
mean anomaly at epoch: 201.6261°
orbit number at epoch: 42652

The dashed part of the orbit path shows where the satellite is in the earth's shadow,  

DLR